Iridium 67 - Orbit

View from above orbital plane
View from above orbital plane
View from above satellite
View from above satellite

Ground track
Ground track

The orbit data is extracted from the following two-line orbital elements,

1 25290U 98021F   13144.50154519  .00000244  00000-0  80212-4 0   731
2 25290 086.3965 124.5117 0002301 104.4568 255.6883 14.34213280792229
Epoch (UTC): 24 May 2013 12:02:13
Eccentricity: 0.0002301
inclination: 86.3965°
perigee height: 776 km
apogee height: 779 km
right ascension of ascending node: 124.5117°
argument of perigee: 104.4568°
revolutions per day: 14.34213280
mean anomaly at epoch: 255.6883°
orbit number at epoch: 79222

The dashed part of the orbit path shows where the satellite is in the earth's shadow,  

Developed and maintained by Chris Peat, Heavens-Above GmbH. Please read the updated FAQ before sending e-mail. Imprint. DLR